GW4197 Weather Reports


time (UTC)temp
C
wind
direction
speed
KPH
gust
KPH
rain 1hr
cm
rain 24hr
cm
rain mn
cm
humidity
%
barometer
mb
20260508153536 5 278 4.8 9.7 0.00 0.00 0.00 95 1002.0
20260508153047 5 287 6.4 9.7 0.00 0.00 0.00 95 1002.0
20260508152530 5 295 6.4 9.7 0.00 0.00 0.00 95 1002.1
20260508152033 5 276 8.0 9.7 0.00 0.00 0.00 95 1002.1
20260508151552 5 267 8.0 9.7 0.00 0.00 0.00 95 1002.0
20260508151033 5 279 6.4 9.7 0.00 0.00 0.00 95 1001.9
20260508150531 5 271 6.4 9.7 0.00 0.00 0.00 95 1002.0
20260508150044 5 278 6.4 9.7 0.00 0.00 0.00 95 1002.1
20260508145531 5 264 6.4 9.7 0.00 0.00 0.00 95 1002.3
20260508145030 5 292 4.8 11.3 0.00 0.00 0.00 95 1002.2
20260508144541 5 262 6.4 11.3 0.00 0.00 0.00 95 1002.2
20260508144031 5 265 6.4 9.7 0.00 0.00 0.00 96 1002.2
20260508143531 5 265 4.8 9.7 0.00 0.00 0.00 96 1002.2
20260508143039 5 275 6.4 9.7 0.00 0.00 0.00 96 1002.2
20260508142530 5 267 6.4 9.7 0.00 0.00 0.00 95 1002.2
20260508142031 5 270 8.0 9.7 0.00 0.00 0.00 95 1002.3
20260508141539 5 271 6.4 9.7 0.00 0.00 0.00 95 1002.4
20260508141031 5 252 6.4 8.0 0.00 0.00 0.00 95 1002.4
20260508140530 5 267 6.4 8.0 0.00 0.00 0.00 96 1002.5
20260508140048 5 282 4.8 8.0 0.00 0.00 0.00 95 1002.4
20260508135530 5 299 4.8 8.0 0.00 0.00 0.00 95 1002.5
20260508135031 4 255 4.8 8.0 0.00 0.00 0.00 95 1002.5
20260508134545 5 244 3.2 9.7 0.00 0.00 0.00 95 1002.6
20260508134031 5 245 4.8 9.7 0.00 0.00 0.00 95 1002.5
20260508133535 5 238 4.8 9.7 0.00 0.00 0.00 95 1002.6
20260508133100 5 264 4.8 8.0 0.00 0.00 0.00 95 1002.5
20260508132531 5 262 6.4 8.0 0.00 0.00 0.00 96 1002.5
20260508132032 5 245 3.2 8.0 0.00 0.00 0.00 95 1002.5
20260508131539 5 247 4.8 8.0 0.00 0.00 0.00 95 1002.4
20260508131031 5 259 4.8 8.0 0.00 0.00 0.00 95 1002.4
20260508130531 5 249 1.6 8.0 0.00 0.00 0.00 96 1002.2
20260508130039 5 262 4.8 9.7 0.00 0.00 0.00 95 1002.1
20260508125531 5 257 1.6 11.3 0.00 0.00 0.00 95 1002.0
20260508125034 5 255 4.8 11.3 0.00 0.00 0.00 95 1001.9
20260508124539 5 258 6.4 9.7 0.00 0.00 0.00 95 1001.9
20260508124031 5 268 6.4 9.7 0.00 0.00 0.00 95 1001.8
20260508123531 5 269 6.4 9.7 0.00 0.00 0.00 95 1001.7
20260508123044 5 245 4.8 8.0 0.00 0.00 0.00 94 1001.7
20260508122531 5 256 4.8 6.4 0.00 0.00 0.00 94 1001.7
20260508122031 5 277 4.8 6.4 0.00 0.00 0.00 95 1001.8
20260508121543 5 319 0.0 6.4 0.00 0.00 0.00 95 1001.8
20260508121033 5 0 1.6 6.4 0.00 0.00 0.00 95 1001.9
20260508120535 5 0 0.0 0.0 0.00 0.00 0.00 94 1002.1
20260508120050 6 0 0.0 0.0 0.00 0.00 0.00 95 1002.1
20260508115533 6 0 0.0 0.0 0.00 0.00 0.00 94 1002.2
20260508115035 6 0 0.0 0.0 0.00 0.00 0.00 95 1002.0
20260508114546 6 0 0.0 0.0 0.00 0.00 0.00 94 1001.9
20260508114034 6 0 0.0 0.0 0.00 0.00 0.00 95 1001.8
20260508113532 6 0 0.0 0.0 0.00 0.00 0.00 96 1001.9
20260508113054 5 0 0.0 0.0 0.00 0.00 0.00 95 1002.0
20260508112532 5 0 0.0 0.0 0.00 0.00 0.00 95 1001.9
20260508112032 5 0 0.0 0.0 0.00 0.00 0.00 95 1002.0
20260508111549 6 0 0.0 0.0 0.00 0.00 0.00 95 1002.2
20260508111032 6 0 0.0 0.0 0.00 0.00 0.00 95 1002.2
20260508110531 6 0 0.0 0.0 0.00 0.00 0.00 96 1002.2
20260508110044 6 0 0.0 0.0 0.00 0.00 0.00 96 1002.2
20260508105534 7 0 0.0 0.0 0.00 0.00 0.00 96 1002.1
20260508105035 7 0 0.0 1.6 0.00 0.00 0.00 98 1002.2
20260508104545 6 0 0.0 1.6 0.00 0.00 0.00 98 1002.4
20260508104032 6 0 0.0 1.6 0.00 0.00 0.00 98 1002.4
20260508103533 5 0 0.0 0.0 0.00 0.00 0.00 97 1002.4
20260508103051 5 0 0.0 0.0 0.00 0.00 0.00 97 1002.4
20260508102533 5 0 0.0 0.0 0.00 0.00 0.00 97 1002.3
20260508102032 5 0 0.0 0.0 0.00 0.00 0.00 98 1002.2
20260508101548 5 0 0.0 0.0 0.00 0.00 0.00 98 1002.1
20260508101033 5 0 0.0 0.0 0.00 0.00 0.00 98 1002.4
20260508100532 5 0 0.0 0.0 0.00 0.00 0.00 98 1002.3
20260508100048 4 0 0.0 0.0 0.00 0.00 0.00 98 1002.2
20260508095536 4 0 0.0 0.0 0.00 0.00 0.00 97 1002.3
20260508095034 4 0 0.0 0.0 0.00 0.00 0.00 97 1002.2
20260508094545 3 0 0.0 0.0 0.00 0.00 0.00 97 1002.2
20260508094033 3 0 0.0 0.0 0.00 0.00 0.00 97 1002.0
20260508093533 3 0 0.0 0.0 0.00 0.00 0.00 97 1001.9
20260508093049 3 0 0.0 0.0 0.00 0.00 0.00 97 1002.1
20260508092532 3 0 0.0 0.0 0.00 0.00 0.00 97 1001.8
20260508092032 3 0 0.0 0.0 0.00 0.00 0.00 97 1001.8
20260508091608 4 0 0.0 0.0 0.00 0.00 0.00 97 1001.9
20260508091032 4 0 0.0 0.0 0.00 0.00 0.00 97 1001.8
20260508090533 4 0 0.0 0.0 0.00 0.00 0.00 97 1001.9
20260508090058 4 0 0.0 0.0 0.00 0.00 0.00 97 1002.2
20260508085533 4 0 0.0 0.0 0.00 0.00 0.00 97 1002.1
20260508085036 4 0 0.0 0.0 0.00 0.00 0.00 97 1002.0
20260508084542 5 0 0.0 0.0 0.00 0.00 0.00 97 1002.0
20260508084036 5 0 0.0 0.0 0.00 0.00 0.00 97 1002.0
20260508083532 5 0 0.0 0.0 0.00 0.00 0.00 97 1001.6
20260508083044 5 0 0.0 0.0 0.00 0.00 0.00 97 1001.6
20260508082532 5 0 0.0 0.0 0.00 0.00 0.00 97 1001.6
20260508082032 5 0 0.0 0.0 0.00 0.00 0.00 97 1001.7
20260508081547 5 0 0.0 0.0 0.00 0.00 0.00 98 1001.7
20260508081031 5 0 0.0 0.0 0.00 0.00 0.00 98 1001.6
20260508080532 5 0 0.0 0.0 0.00 0.00 0.00 98 1001.2
20260508080044 5 0 0.0 0.0 0.00 0.00 0.00 97 1001.3
20260508075532 5 0 0.0 0.0 0.00 0.00 0.00 97 1001.3
20260508075035 5 0 0.0 0.0 0.00 0.00 0.00 97 1001.5
20260508074541 5 0 0.0 0.0 0.00 0.00 0.00 98 1001.5
20260508074034 5 0 0.0 0.0 0.00 0.00 0.00 97 1001.5
20260508073533 5 0 0.0 0.0 0.00 0.00 0.00 97 1001.4
20260508073049 5 0 0.0 0.0 0.00 0.00 0.00 97 1001.6
20260508072533 5 0 0.0 0.0 0.00 0.00 0.00 97 1001.6
20260508072033 5 0 0.0 0.0 0.00 0.00 0.00 97 1001.8
20260508071542 5 0 0.0 0.0 0.00 0.00 0.00 97 1001.7
20260508071032 4 0 0.0 0.0 0.00 0.00 0.00 97 1001.9
20260508070532 4 0 0.0 1.6 0.00 0.00 0.00 97 1001.8
20260508070058 4 0 0.0 1.6 0.00 0.00 0.00 97 1001.7
20260508065533 4 0 0.0 1.6 0.00 0.00 0.00 97 1001.8
20260508065033 5 0 0.0 0.0 0.00 0.00 0.00 97 1001.9
20260508064549 5 0 0.0 0.0 0.00 0.00 0.00 97 1002.0
20260508064034 4 0 0.0 0.0 0.00 0.00 0.00 97 1002.0
20260508063534 4 0 0.0 0.0 0.00 0.00 0.00 97 1001.8
20260508063115 5 0 0.0 0.0 0.00 0.00 0.00 97 1001.8
20260508062532 5 0 0.0 0.0 0.00 0.00 0.00 97 1001.7
20260508062034 5 0 0.0 0.0 0.00 0.00 0.00 97 1001.7
20260508061544 5 0 0.0 6.4 0.00 0.00 0.00 97 1001.7
20260508061032 5 0 0.0 8.0 0.00 0.00 0.00 97 1001.8
20260508060535 5 0 3.2 8.0 0.00 0.00 0.00 97 1001.8
20260508060045 4 0 0.0 0.0 0.00 0.00 0.00 97 1001.9
20260508055532 4 0 0.0 0.0 0.00 0.00 0.00 97 1001.7
20260508055033 4 0 0.0 0.0 0.00 0.00 0.00 97 1001.6
20260508054543 4 0 0.0 4.8 0.00 0.00 0.00 97 1001.5
20260508054033 5 0 0.0 4.8 0.00 0.00 0.00 97 1001.6
20260508053531 5 0 0.0 4.8 0.00 0.00 0.00 97 1001.7
20260508053051 5 0 0.0 0.0 0.00 0.00 0.00 97 1001.7
20260508052532 5 0 0.0 0.0 0.00 0.00 0.00 97 1001.7
20260508052034 5 0 0.0 3.2 0.00 0.00 0.00 97 1001.8
20260508051604 5 0 0.0 3.2 0.00 0.00 0.00 97 1001.7
20260508051032 5 0 0.0 3.2 0.00 0.00 0.00 97 1001.8
20260508050534 5 0 0.0 0.0 0.00 0.00 0.00 97 1001.7
20260508050050 6 0 0.0 0.0 0.00 0.00 0.00 97 1001.5
20260508045533 6 0 0.0 0.0 0.00 0.00 0.00 97 1001.6
20260508045034 6 0 0.0 0.0 0.00 0.00 0.00 97 1001.6
20260508044546 6 0 0.0 0.0 0.00 0.00 0.00 97 1001.7
20260508044031 6 0 0.0 0.0 0.00 0.00 0.00 97 1001.7
20260508043532 6 0 0.0 0.0 0.00 0.00 0.00 97 1001.6
20260508043044 6 0 0.0 0.0 0.00 0.00 0.00 97 1001.7
20260508042532 6 0 0.0 0.0 0.00 0.00 0.00 97 1001.7
20260508042031 6 0 0.0 0.0 0.00 0.00 0.00 97 1001.6
20260508041546 6 0 0.0 0.0 0.00 0.00 0.00 97 1001.8
20260508041035 6 0 0.0 0.0 0.00 0.00 0.00 97 1001.9
20260508040533 6 0 0.0 0.0 0.00 0.00 0.00 97 1001.9
20260508040045 6 0 0.0 0.0 0.00 0.00 0.00 97 1001.9
20260508035532 6 0 0.0 0.0 0.00 0.00 0.00 96 1001.8
20260508035032 7 0 0.0 0.0 0.00 0.00 0.00 97 1001.7
20260508034546 7 0 0.0 0.0 0.00 0.00 0.00 97 1001.7
20260508034034 7 0 0.0 0.0 0.00 0.00 0.00 97 1001.8
20260508033532 7 0 0.0 0.0 0.00 0.00 0.00 97 1001.8
20260508033048 7 0 0.0 0.0 0.00 0.00 0.00 97 1001.8
20260508032534 7 0 0.0 0.0 0.00 0.00 0.00 97 1001.8
20260508032032 7 0 0.0 0.0 0.00 0.00 0.00 97 1001.8
20260508031541 7 0 0.0 0.0 0.00 0.00 0.00 97 1001.8
20260508031032 7 0 0.0 0.0 0.00 0.00 0.00 97 1001.7
20260508030535 7 0 0.0 0.0 0.00 0.00 0.00 97 1001.8
20260508030047 7 0 0.0 0.0 0.00 0.00 0.00 97 1001.9
20260508025534 7 0 0.0 0.0 0.00 0.00 0.00 97 1001.9
20260508025031 7 0 0.0 0.0 0.00 0.00 0.00 97 1002.1
20260508024546 7 0 0.0 0.0 0.00 0.00 0.00 97 1002.0
20260508024033 7 0 0.0 0.0 0.00 0.00 0.00 97 1002.0
20260508023533 7 0 0.0 0.0 0.00 0.00 0.00 97 1002.1
20260508023046 7 0 0.0 0.0 0.00 0.00 0.00 97 1002.0
20260508022533 7 0 0.0 0.0 0.00 0.00 0.00 97 1002.1
20260508022032 7 0 0.0 0.0 0.00 0.00 0.00 97 1002.1
20260508021550 7 0 0.0 0.0 0.00 0.00 0.00 97 1002.3
20260508021034 7 0 0.0 0.0 0.00 0.00 0.00 97 1002.3
20260508020532 7 0 0.0 0.0 0.00 0.00 0.00 97 1002.3
20260508020040 7 0 0.0 0.0 0.00 0.00 0.00 97 1002.0
20260508015532 7 0 0.0 0.0 0.00 0.00 0.00 97 1002.1
20260508015032 7 0 0.0 0.0 0.00 0.00 0.00 97 1002.4
20260508014539 7 0 0.0 0.0 0.00 0.00 0.00 97 1002.4
20260508014032 7 0 0.0 0.0 0.00 0.00 0.00 97 1002.5
20260508013532 7 0 0.0 0.0 0.00 0.00 0.00 97 1002.7
20260508013046 7 0 0.0 0.0 0.00 0.00 0.00 97 1002.7
20260508012532 7 0 0.0 4.8 0.00 0.00 0.00 97 1002.6
20260508012032 7 0 1.6 4.8 0.00 0.00 0.00 97 1002.5
20260508011549 7 271 0.0 9.7 0.00 0.00 0.00 97 1002.4
20260508011033 7 0 0.0 9.7 0.00 0.00 0.00 96 1002.3
20260508010532 7 284 4.8 9.7 0.00 0.00 0.00 96 1002.3
20260508010057 7 286 6.4 9.7 0.00 0.00 0.00 96 1002.3
20260508005534 7 284 6.4 9.7 0.00 0.00 0.00 96 1002.3
20260508005032 7 276 3.2 8.0 0.00 0.00 0.00 96 1002.4
20260508004540 7 273 1.6 6.4 0.00 0.00 0.00 96 1002.4
20260508004032 8 0 1.6 6.4 0.00 0.00 0.00 96 1002.3
20260508003532 8 0 0.0 6.4 0.00 0.00 0.00 96 1002.2
20260508003046 8 266 0.0 8.0 0.00 0.00 0.00 96 1002.2
20260508002532 8 258 4.8 8.0 0.00 0.00 0.00 96 1002.3
20260508002032 8 250 1.6 8.0 0.00 0.00 0.00 96 1002.3
20260508001546 8 252 3.2 9.7 0.00 0.00 0.00 95 1002.4
20260508001032 8 238 6.4 9.7 0.00 0.00 0.00 95 1002.3
20260508000531 8 260 6.4 9.7 0.00 0.00 0.00 95 1002.3
20260508000047 9 220 6.4 12.9 0.00 0.00 0.00 95 1002.2
20260507235533 10 255 8.0 12.9 0.00 0.00 0.00 95 1002.2
20260507235033 10 246 8.0 14.5 0.00 0.00 0.00 96 1002.1
20260507234545 10 240 6.4 14.5 0.00 0.00 0.00 96 1002.2
20260507234032 10 240 8.0 14.5 0.00 0.00 0.00 95 1002.0
20260507233532 10 215 4.8 12.9 0.00 0.00 0.00 94 1001.9
20260507233042 10 264 1.6 11.3 0.00 0.00 0.00 93 1001.9
20260507232532 11 207 1.6 9.7 0.00 0.00 0.00 94 1001.9
20260507232031 11 267 1.6 8.0 0.00 0.00 0.00 94 1001.8
20260507231541 11 0 0.0 1.6 0.00 0.00 0.00 94 1001.6
20260507231031 11 0 0.0 0.0 0.00 0.00 0.00 94 1001.6
20260507230532 11 0 0.0 0.0 0.00 0.00 0.00 94 1001.6
20260507230105 11 0 0.0 8.0 0.00 0.00 0.00 94 1001.6
20260507225531 11 0 0.0 8.0 0.00 0.00 0.00 94 1001.6
20260507225032 11 252 4.8 12.9 0.00 0.00 0.00 94 1001.5
20260507224545 11 187 0.0 14.5 0.00 0.00 0.00 94 1001.5
20260507224033 11 205 3.2 19.3 0.00 0.00 0.00 93 1001.6
20260507223532 11 269 9.7 19.3 0.00 0.00 0.00 92 1001.3
20260507223131 12 170 9.7 19.3 0.00 0.00 0.00 94 1000.9
20260507222532 12 139 8.0 17.7 0.00 0.00 0.00 94 1000.8
20260507222033 11 131 8.0 16.1 0.00 0.00 0.00 94 1000.8
20260507221544 11 63 8.0 17.7 0.00 0.00 0.00 94 1000.9
20260507221032 11 125 11.3 17.7 0.00 0.00 0.00 94 1000.9
20260507220531 11 124 4.8 22.5 0.00 0.00 0.00 94 1000.9
20260507220046 11 150 8.0 27.4 0.00 0.00 0.00 94 1001.0
20260507215532 11 122 11.3 27.4 0.00 0.00 0.00 94 1000.9
20260507215032 11 132 11.3 29.0 0.00 0.00 0.00 94 1001.0
20260507214554 12 114 11.3 29.0 0.00 0.00 0.00 94 1000.9
20260507214031 12 121 12.9 29.0 0.00 0.00 0.00 94 1000.8
20260507213531 12 93 11.3 24.1 0.00 0.00 0.00 94 1000.9
20260507213046 12 165 12.9 27.4 0.00 0.00 0.00 94 1001.0
20260507212532 12 141 14.5 27.4 0.00 0.00 0.00 94 1001.0
20260507212031 12 124 14.5 27.4 0.00 0.00 0.00 94 1000.9
20260507211549 12 195 12.9 22.5 0.00 0.00 0.00 94 1000.9
20260507211031 12 122 9.7 25.7 0.00 0.00 0.00 94 1000.9
20260507210532 12 116 14.5 29.0 0.00 0.00 0.00 94 1001.1
20260507210050 12 60 12.9 29.0 0.00 0.00 0.00 94 1001.0
20260507205533 12 127 12.9 24.1 0.00 0.00 0.00 94 1001.1
20260507205031 12 118 11.3 24.1 0.00 0.00 0.00 94 1001.1
20260507204545 12 114 11.3 25.7 0.00 0.00 0.00 94 1001.0
20260507204031 12 169 9.7 25.7 0.00 0.00 0.00 94 1000.8
20260507203533 12 128 9.7 25.7 0.00 0.00 0.00 94 1000.9
20260507203046 12 136 9.7 25.7 0.00 0.00 0.00 94 1000.8
20260507202531 12 109 11.3 25.7 0.00 0.00 0.00 95 1000.9
20260507202031 12 96 12.9 24.1 0.00 0.00 0.00 95 1001.0
20260507201547 12 198 9.7 24.1 0.00 0.00 0.00 95 1001.0
20260507201034 12 109 12.9 24.1 0.00 0.00 0.00 95 1000.3
20260507200531 12 143 12.9 25.7 0.00 0.00 0.00 95 1000.3
20260507200054 12 127 11.3 25.7 0.00 0.00 0.00 95 1000.3
20260507195532 12 129 11.3 25.7 0.00 0.00 0.00 95 1000.5
20260507195034 12 150 12.9 24.1 0.00 0.00 0.00 95 1000.8
20260507194545 12 103 9.7 22.5 0.00 0.00 0.00 95 1000.5
20260507194030 12 118 11.3 22.5 0.00 0.00 0.00 95 1000.8
20260507193531 12 128 9.7 22.5 0.00 0.00 0.00 95 1001.1
20260507193051 12 122 11.3 22.5 0.00 0.00 0.00 94 1001.2
20260507192531 12 127 6.4 20.9 0.00 0.00 0.00 95 1001.4
20260507192031 12 125 11.3 22.5 0.00 0.00 0.00 95 1001.7
20260507191547 12 161 11.3 22.5 0.00 0.00 0.00 95 1002.0
20260507191031 12 167 12.9 29.0 0.00 0.00 0.00 95 1002.4
20260507190531 12 152 9.7 29.0 0.00 0.00 0.00 95 1002.6
20260507190051 12 148 12.9 29.0 0.00 0.00 0.00 95 1002.7
20260507185531 12 140 11.3 25.7 0.00 0.00 0.00 95 1002.8
20260507185033 12 131 8.0 22.5 0.00 0.00 0.00 95 1002.9
20260507184543 12 151 9.7 22.5 0.00 0.00 0.00 95 1003.0
20260507184030 12 127 12.9 22.5 0.00 0.00 0.00 95 1002.9
20260507183531 12 139 8.0 20.9 0.00 0.00 0.00 95 1002.8
20260507183042 12 129 9.7 24.1 0.00 0.00 0.00 95 1002.9
20260507182532 12 136 12.9 25.7 0.00 0.00 0.00 95 1003.3
20260507182032 12 172 9.7 25.7 0.00 0.00 0.00 94 1003.4
20260507181547 12 129 9.7 25.7 0.00 0.00 0.00 94 1003.3
20260507181032 12 216 12.9 22.5 0.00 0.00 0.00 94 1003.4
20260507180535 12 136 8.0 20.9 0.00 0.00 0.00 94 1003.3
20260507180048 12 126 9.7 20.9 0.00 0.00 0.00 94 1003.5
20260507175533 12 142 9.7 22.5 0.00 0.00 0.00 94 1003.6
20260507175031 12 182 8.0 22.5 0.00 0.00 0.00 94 1003.8
20260507174554 12 149 9.7 27.4 0.00 0.00 0.00 94 1003.9
20260507174032 12 126 12.9 27.4 0.00 0.00 0.00 93 1004.0
20260507173531 12 210 11.3 25.7 0.00 0.00 0.00 93 1004.1
20260507173044 12 162 11.3 25.7 0.00 0.00 0.00 93 1004.2
20260507172531 13 149 14.5 25.7 0.00 0.00 0.00 92 1004.1
20260507172031 13 146 9.7 29.0 0.00 0.00 0.00 92 1003.8
20260507171549 13 198 14.5 40.2 0.00 0.00 0.00 91 1003.5
20260507171031 13 150 14.5 40.2 0.00 0.00 0.00 91 1003.7
20260507170533 13 136 14.5 33.8 0.00 0.00 0.00 89 1003.6
20260507170050 14 132 17.7 33.8 0.00 0.00 0.00 88 1003.3
20260507165532 14 191 14.5 40.2 0.00 0.00 0.00 87 1003.4
20260507165031 15 131 16.1 40.2 0.00 0.00 0.00 86 1003.2
20260507164547 15 166 22.5 40.2 0.00 0.00 0.00 85 1003.1
20260507164032 15 134 19.3 49.9 0.00 0.00 0.00 84 1003.1
20260507163532 15 159 22.5 49.9 0.00 0.00 0.00 84 1003.0
20260507163045 15 161 19.3 46.7 0.00 0.00 0.00 84 1002.9
20260507162531 15 150 22.5 45.1 0.00 0.00 0.00 83 1003.1
20260507162033 15 125 19.3 43.5 0.00 0.00 0.00 83 1003.2
20260507161554 15 148 22.5 45.1 0.00 0.00 0.00 83 1003.3
20260507161033 15 169 20.9 45.1 0.00 0.00 0.00 83 1003.1
20260507160532 15 159 19.3 43.5 0.00 0.00 0.00 82 1003.4
20260507160042 16 81 22.5 43.5 0.00 0.00 0.00 82 1003.4
20260507155530 16 139 24.1 43.5 0.00 0.00 0.00 82 1003.5
20260507155031 16 159 20.9 41.8 0.00 0.00 0.00 81 1003.7
20260507154544 16 152 17.7 41.8 0.00 0.00 0.00 82 1003.9
20260507154031 16 124 17.7 48.3 0.00 0.00 0.00 82 1004.0